Year,Month,Day,Hour,Minute,Value (Times are PST for temperature in C)
2009,11,30,00,00,8.80
2009,11,30,00,01,8.80
2009,11,30,00,02,8.80
2009,11,30,00,03,8.80
2009,11,30,00,04,8.70
2009,11,30,00,05,8.70
2009,11,30,00,06,8.70
2009,11,30,00,07,8.60
2009,11,30,00,08,8.60
2009,11,30,00,09,8.60
2009,11,30,00,10,8.60
2009,11,30,00,11,8.60
2009,11,30,00,12,8.60
2009,11,30,00,13,8.60
2009,11,30,00,14,8.60
2009,11,30,00,15,8.60
2009,11,30,00,16,8.50
2009,11,30,00,17,8.50
2009,11,30,00,18,8.50
2009,11,30,00,19,8.50
2009,11,30,00,20,8.50
2009,11,30,00,21,8.50
2009,11,30,00,22,8.50
2009,11,30,00,23,8.50
2009,11,30,00,24,8.50
2009,11,30,00,25,8.50
2009,11,30,00,26,8.50
2009,11,30,00,27,8.50
2009,11,30,00,28,8.50
2009,11,30,00,29,8.50
2009,11,30,00,30,8.50
2009,11,30,00,31,8.50
2009,11,30,00,32,8.60
2009,11,30,00,33,8.60
2009,11,30,00,34,8.60
2009,11,30,00,35,8.60
2009,11,30,00,36,8.60
2009,11,30,00,37,8.60
2009,11,30,00,38,8.60
2009,11,30,00,39,8.60
2009,11,30,00,40,8.60
2009,11,30,00,41,8.70
2009,11,30,00,42,8.70
2009,11,30,00,43,8.70
2009,11,30,00,44,8.70
2009,11,30,00,45,8.80
2009,11,30,00,46,9.00
2009,11,30,00,47,9.30
2009,11,30,00,48,9.40
2009,11,30,00,49,9.50
2009,11,30,00,50,9.50
2009,11,30,00,51,9.40
2009,11,30,00,52,9.40
2009,11,30,00,53,9.40
2009,11,30,00,54,9.60
2009,11,30,00,55,9.70
2009,11,30,00,56,9.80
2009,11,30,00,57,9.80
2009,11,30,00,58,9.80
2009,11,30,00,59,9.70
2009,11,30,01,00,9.70
2009,11,30,01,01,9.60
2009,11,30,01,02,9.60
2009,11,30,01,03,9.50
2009,11,30,01,04,9.50
2009,11,30,01,05,9.40
2009,11,30,01,06,9.40
2009,11,30,01,07,9.40
2009,11,30,01,08,9.40
2009,11,30,01,09,9.40
2009,11,30,01,10,9.40
2009,11,30,01,11,9.30
2009,11,30,01,12,9.30
2009,11,30,01,13,9.30
2009,11,30,01,14,9.30
2009,11,30,01,15,9.40
2009,11,30,01,16,9.50
2009,11,30,01,17,9.70
2009,11,30,01,18,9.90
2009,11,30,01,19,10.00
2009,11,30,01,20,10.10
2009,11,30,01,21,10.20
2009,11,30,01,22,10.30
2009,11,30,01,23,10.30
2009,11,30,01,24,10.30
2009,11,30,01,25,10.30
2009,11,30,01,26,10.20
2009,11,30,01,27,10.10
2009,11,30,01,28,10.00
2009,11,30,01,29,9.90
2009,11,30,01,30,9.90
2009,11,30,01,31,9.80
2009,11,30,01,32,9.80
2009,11,30,01,33,9.80
2009,11,30,01,34,9.90
2009,11,30,01,35,9.90
2009,11,30,01,36,9.90
2009,11,30,01,37,9.90
2009,11,30,01,38,10.00
2009,11,30,01,39,10.10
2009,11,30,01,40,10.00
2009,11,30,01,41,9.90
2009,11,30,01,42,10.00
2009,11,30,01,43,10.10
2009,11,30,01,44,10.20
2009,11,30,01,45,10.20
2009,11,30,01,46,10.30
2009,11,30,01,47,10.30
2009,11,30,01,48,10.20
2009,11,30,01,49,10.20
2009,11,30,01,50,10.20
2009,11,30,01,51,10.30
2009,11,30,01,52,10.30
2009,11,30,01,53,10.30
2009,11,30,01,54,10.30
2009,11,30,01,55,10.30
2009,11,30,01,56,10.30
2009,11,30,01,57,10.30
2009,11,30,01,58,10.30
2009,11,30,01,59,10.40
2009,11,30,02,00,10.40
2009,11,30,02,01,10.40
2009,11,30,02,02,10.40
2009,11,30,02,03,10.40
2009,11,30,02,04,10.40
2009,11,30,02,05,10.50
2009,11,30,02,06,10.60
2009,11,30,02,07,10.60
2009,11,30,02,08,10.60
2009,11,30,02,09,10.60
2009,11,30,02,10,10.60
2009,11,30,02,11,10.60
2009,11,30,02,12,10.50
2009,11,30,02,13,10.50
2009,11,30,02,14,10.50
2009,11,30,02,15,10.50
2009,11,30,02,16,10.50
2009,11,30,02,17,10.50
2009,11,30,02,18,10.40
2009,11,30,02,19,10.40
2009,11,30,02,20,10.40
2009,11,30,02,21,10.40
2009,11,30,02,22,10.40
2009,11,30,02,23,10.40
2009,11,30,02,24,10.30
2009,11,30,02,25,10.30
2009,11,30,02,26,10.30
2009,11,30,02,27,10.30
2009,11,30,02,28,10.30
2009,11,30,02,29,10.30
2009,11,30,02,30,10.30
2009,11,30,02,31,10.30
2009,11,30,02,32,10.50
2009,11,30,02,33,10.70
2009,11,30,02,34,10.90
2009,11,30,02,35,11.10
2009,11,30,02,36,11.30
2009,11,30,02,37,11.40
2009,11,30,02,38,11.50
2009,11,30,02,39,11.50
2009,11,30,02,40,11.60
2009,11,30,02,41,11.60
2009,11,30,02,42,11.60
2009,11,30,02,43,11.70
2009,11,30,02,44,11.70
2009,11,30,02,45,11.70
2009,11,30,02,46,11.70
2009,11,30,02,47,11.70
2009,11,30,02,48,11.60
2009,11,30,02,49,11.60
2009,11,30,02,50,11.60
2009,11,30,02,51,11.60
2009,11,30,02,52,11.60
2009,11,30,02,53,11.60
2009,11,30,02,54,11.60
2009,11,30,02,55,11.50
2009,11,30,02,56,11.50
2009,11,30,02,57,11.50
2009,11,30,02,58,11.50
2009,11,30,02,59,11.50
2009,11,30,03,00,11.50
2009,11,30,03,01,11.40
2009,11,30,03,02,11.40
2009,11,30,03,03,11.30
2009,11,30,03,04,11.20
2009,11,30,03,05,11.20
2009,11,30,03,06,11.10
2009,11,30,03,07,11.00
2009,11,30,03,08,10.90
2009,11,30,03,09,10.80
2009,11,30,03,10,10.80
2009,11,30,03,11,10.70
2009,11,30,03,12,10.60
2009,11,30,03,13,10.50
2009,11,30,03,14,10.40
2009,11,30,03,15,10.40
2009,11,30,03,16,10.40
2009,11,30,03,17,10.50
2009,11,30,03,18,10.60
2009,11,30,03,19,10.70
2009,11,30,03,20,10.70
2009,11,30,03,21,10.80
2009,11,30,03,22,10.80
2009,11,30,03,23,10.80
2009,11,30,03,24,10.90
2009,11,30,03,25,10.90
2009,11,30,03,26,11.00
2009,11,30,03,27,11.10
2009,11,30,03,28,11.10
2009,11,30,03,29,11.10
2009,11,30,03,30,11.10
2009,11,30,03,31,11.00
2009,11,30,03,32,11.00
2009,11,30,03,33,10.90
2009,11,30,03,34,10.90
2009,11,30,03,35,10.90
2009,11,30,03,36,10.90
2009,11,30,03,37,10.90
2009,11,30,03,38,10.90
2009,11,30,03,39,10.90
2009,11,30,03,40,10.90
2009,11,30,03,41,10.90
2009,11,30,03,42,10.90
2009,11,30,03,43,10.90
2009,11,30,03,44,11.00
2009,11,30,03,45,11.00
2009,11,30,03,46,11.00
2009,11,30,03,47,11.10
2009,11,30,03,48,11.10
2009,11,30,03,49,11.10
2009,11,30,03,50,11.10
2009,11,30,03,51,11.10
2009,11,30,03,52,11.00
2009,11,30,03,53,10.90
2009,11,30,03,54,10.70
2009,11,30,03,55,10.60
2009,11,30,03,56,10.50
2009,11,30,03,57,10.40
2009,11,30,03,58,10.40
2009,11,30,03,59,10.30
2009,11,30,04,00,10.20
2009,11,30,04,01,10.10
2009,11,30,04,02,10.00
2009,11,30,04,03,9.90
2009,11,30,04,04,9.90
2009,11,30,04,05,9.80
2009,11,30,04,06,9.80
2009,11,30,04,07,9.80
2009,11,30,04,08,9.90
2009,11,30,04,09,9.90
2009,11,30,04,10,9.90
2009,11,30,04,11,9.90
2009,11,30,04,12,10.00
2009,11,30,04,13,10.00
2009,11,30,04,14,10.00
2009,11,30,04,15,10.00
2009,11,30,04,16,10.00
2009,11,30,04,17,9.90
2009,11,30,04,18,9.90
2009,11,30,04,19,9.90
2009,11,30,04,20,9.90
2009,11,30,04,21,10.00
2009,11,30,04,22,10.00
2009,11,30,04,23,10.00
2009,11,30,04,24,10.10
2009,11,30,04,25,10.10
2009,11,30,04,26,10.10
2009,11,30,04,27,10.10
2009,11,30,04,28,10.10
2009,11,30,04,29,10.10
2009,11,30,04,30,10.20
2009,11,30,04,31,10.20
2009,11,30,04,32,10.20
2009,11,30,04,33,10.20
2009,11,30,04,34,10.20
2009,11,30,04,35,10.20
2009,11,30,04,36,10.20
2009,11,30,04,37,10.20
2009,11,30,04,38,10.20
2009,11,30,04,39,10.20
2009,11,30,04,40,10.10
2009,11,30,04,41,10.10
2009,11,30,04,42,10.10
2009,11,30,04,43,10.10
2009,11,30,04,44,10.10
2009,11,30,04,45,10.10
2009,11,30,04,46,10.10
2009,11,30,04,47,10.20
2009,11,30,04,48,10.20
2009,11,30,04,49,10.30
2009,11,30,04,50,10.30
2009,11,30,04,51,10.40
2009,11,30,04,52,10.40
2009,11,30,04,53,10.50
2009,11,30,04,54,10.50
2009,11,30,04,55,10.50
2009,11,30,04,56,10.40
2009,11,30,04,57,10.40
2009,11,30,04,58,10.30
2009,11,30,04,59,10.20
2009,11,30,05,00,10.20
2009,11,30,05,01,10.20
2009,11,30,05,02,10.20
2009,11,30,05,03,10.20
2009,11,30,05,04,10.20
2009,11,30,05,05,10.30
2009,11,30,05,06,10.30
2009,11,30,05,07,10.40
2009,11,30,05,08,10.40
2009,11,30,05,09,10.30
2009,11,30,05,10,10.30
2009,11,30,05,11,10.30
2009,11,30,05,12,10.20
2009,11,30,05,13,10.20
2009,11,30,05,14,10.10
2009,11,30,05,15,10.10
2009,11,30,05,16,10.10
2009,11,30,05,17,10.00
2009,11,30,05,18,10.00
2009,11,30,05,19,9.90
2009,11,30,05,20,9.90
2009,11,30,05,21,9.90
2009,11,30,05,22,9.90
2009,11,30,05,23,9.90
2009,11,30,05,24,9.90
2009,11,30,05,25,9.90
2009,11,30,05,26,9.90
2009,11,30,05,27,9.90
2009,11,30,05,28,9.90
2009,11,30,05,29,9.90
2009,11,30,05,30,9.90
2009,11,30,05,31,9.90
2009,11,30,05,32,9.90
2009,11,30,05,33,9.90
2009,11,30,05,34,9.80
2009,11,30,05,35,9.80
2009,11,30,05,36,9.80
2009,11,30,05,37,9.70
2009,11,30,05,38,9.70
2009,11,30,05,39,9.70
2009,11,30,05,40,9.70
2009,11,30,05,41,9.70
2009,11,30,05,42,9.70
2009,11,30,05,43,9.70
2009,11,30,05,44,9.70
2009,11,30,05,45,9.70
2009,11,30,05,46,9.70
2009,11,30,05,47,9.70
2009,11,30,05,48,9.60
2009,11,30,05,49,9.60
2009,11,30,05,50,9.60
2009,11,30,05,51,9.60
2009,11,30,05,52,9.60
2009,11,30,05,53,9.60
2009,11,30,05,54,9.60
2009,11,30,05,55,9.60
2009,11,30,05,56,9.70
2009,11,30,05,57,9.70
2009,11,30,05,58,9.70
2009,11,30,05,59,9.70
2009,11,30,06,00,9.70
2009,11,30,06,01,9.70
2009,11,30,06,02,9.70
2009,11,30,06,03,9.80
2009,11,30,06,04,9.80
2009,11,30,06,05,9.80
2009,11,30,06,06,9.70
2009,11,30,06,07,9.70
2009,11,30,06,08,9.70
2009,11,30,06,09,9.70
2009,11,30,06,10,9.70
2009,11,30,06,11,9.70
2009,11,30,06,12,9.70
2009,11,30,06,13,9.70
2009,11,30,06,14,9.70
2009,11,30,06,15,9.70
2009,11,30,06,16,9.70
2009,11,30,06,17,9.70
2009,11,30,06,18,9.70
2009,11,30,06,19,9.70
2009,11,30,06,20,9.70
2009,11,30,06,21,9.70
2009,11,30,06,22,9.70
2009,11,30,06,23,9.70
2009,11,30,06,24,9.70
2009,11,30,06,25,9.70
2009,11,30,06,26,9.70
2009,11,30,06,27,9.70
2009,11,30,06,28,9.70
2009,11,30,06,29,9.70
2009,11,30,06,30,9.70
2009,11,30,06,31,9.70
2009,11,30,06,32,9.70
2009,11,30,06,33,9.80
2009,11,30,06,34,9.80
2009,11,30,06,35,9.80
2009,11,30,06,36,9.80
2009,11,30,06,37,9.80
2009,11,30,06,38,9.80
2009,11,30,06,39,9.80
2009,11,30,06,40,9.80
2009,11,30,06,41,9.80
2009,11,30,06,42,9.80
2009,11,30,06,43,9.80
2009,11,30,06,44,9.80
2009,11,30,06,45,9.80
2009,11,30,06,46,9.80
2009,11,30,06,47,9.70
2009,11,30,06,48,9.70
2009,11,30,06,49,9.70
2009,11,30,06,50,9.80
2009,11,30,06,51,9.80
2009,11,30,06,52,9.80
2009,11,30,06,53,9.70
2009,11,30,06,54,9.70
2009,11,30,06,55,9.70
2009,11,30,06,56,9.70
2009,11,30,06,57,9.80
2009,11,30,06,58,9.80
2009,11,30,06,59,9.80
2009,11,30,07,00,9.80
2009,11,30,07,01,9.80
2009,11,30,07,02,9.80
2009,11,30,07,03,9.70
2009,11,30,07,04,9.70
2009,11,30,07,05,9.70
2009,11,30,07,06,9.70
2009,11,30,07,07,9.70
2009,11,30,07,08,9.70
2009,11,30,07,09,9.60
2009,11,30,07,10,9.60
2009,11,30,07,11,9.60
2009,11,30,07,12,9.60
2009,11,30,07,13,9.60
2009,11,30,07,14,9.60
2009,11,30,07,15,9.60
2009,11,30,07,16,9.60
2009,11,30,07,17,9.60
2009,11,30,07,18,9.60
2009,11,30,07,19,9.60
2009,11,30,07,20,9.60
2009,11,30,07,21,9.60
2009,11,30,07,22,9.60
2009,11,30,07,23,9.60
2009,11,30,07,24,9.60
2009,11,30,07,25,9.60
2009,11,30,07,26,9.60
2009,11,30,07,27,9.70
2009,11,30,07,28,9.70
2009,11,30,07,29,9.70
2009,11,30,07,30,9.70
2009,11,30,07,31,9.70
2009,11,30,07,32,9.70
2009,11,30,07,33,9.70
2009,11,30,07,34,9.70
2009,11,30,07,35,9.80
2009,11,30,07,36,9.90
2009,11,30,07,37,10.00
2009,11,30,07,38,10.00
2009,11,30,07,39,9.80
2009,11,30,07,40,9.50
2009,11,30,07,41,9.20
2009,11,30,07,42,8.80
2009,11,30,07,43,8.50
2009,11,30,07,44,8.10
2009,11,30,07,45,7.90
2009,11,30,07,46,7.60
2009,11,30,07,47,7.50
2009,11,30,07,48,7.30
2009,11,30,07,49,7.20
2009,11,30,07,50,7.00
2009,11,30,07,51,6.90
2009,11,30,07,52,6.80
2009,11,30,07,53,6.70
2009,11,30,07,54,6.60
2009,11,30,07,55,6.60
2009,11,30,07,56,6.50
2009,11,30,07,57,6.40
2009,11,30,07,58,6.40
2009,11,30,07,59,6.30
2009,11,30,08,00,6.30
2009,11,30,08,01,6.30
2009,11,30,08,02,6.30
2009,11,30,08,03,6.30
2009,11,30,08,04,6.30
2009,11,30,08,05,6.30
2009,11,30,08,06,6.30
2009,11,30,08,07,6.20
2009,11,30,08,08,6.20
2009,11,30,08,09,6.20
2009,11,30,08,10,6.20
2009,11,30,08,11,6.20
2009,11,30,08,12,6.20
2009,11,30,08,13,6.20
2009,11,30,08,14,6.20
2009,11,30,08,15,6.20
2009,11,30,08,16,6.20
2009,11,30,08,17,6.20
2009,11,30,08,18,6.20
2009,11,30,08,19,6.20
2009,11,30,08,20,6.20
2009,11,30,08,21,6.20
2009,11,30,08,22,6.20
2009,11,30,08,23,6.20
2009,11,30,08,24,6.20
2009,11,30,08,25,6.20
2009,11,30,08,26,6.20
2009,11,30,08,27,6.20
2009,11,30,08,28,6.20
2009,11,30,08,29,6.20
2009,11,30,08,30,6.20
2009,11,30,08,31,6.20
2009,11,30,08,32,6.20
2009,11,30,08,33,6.10
2009,11,30,08,34,6.10
2009,11,30,08,35,6.10
2009,11,30,08,36,6.10
2009,11,30,08,37,6.10
2009,11,30,08,38,6.00
2009,11,30,08,39,6.00
2009,11,30,08,40,6.00
2009,11,30,08,41,5.90
2009,11,30,08,42,5.90
2009,11,30,08,43,5.90
2009,11,30,08,44,5.90
2009,11,30,08,45,5.80
2009,11,30,08,46,5.80
2009,11,30,08,47,5.80
2009,11,30,08,48,5.80
2009,11,30,08,49,5.70
2009,11,30,08,50,5.70
2009,11,30,08,51,5.70
2009,11,30,08,52,5.70
2009,11,30,08,53,5.70
2009,11,30,08,54,5.70
2009,11,30,08,55,5.70
2009,11,30,08,56,5.60
2009,11,30,08,57,5.60
2009,11,30,08,58,5.60
2009,11,30,08,59,5.60
2009,11,30,09,00,5.60
2009,11,30,09,01,5.50
2009,11,30,09,02,5.50
2009,11,30,09,03,5.50
2009,11,30,09,04,5.50
2009,11,30,09,05,5.50
2009,11,30,09,06,5.50
2009,11,30,09,07,5.50
2009,11,30,09,08,5.50
2009,11,30,09,09,5.50
2009,11,30,09,10,5.50
2009,11,30,09,11,5.50
2009,11,30,09,12,5.60
2009,11,30,09,13,5.60
2009,11,30,09,14,5.60
2009,11,30,09,15,5.60
2009,11,30,09,16,5.60
2009,11,30,09,17,5.60
2009,11,30,09,18,5.60
2009,11,30,09,19,5.60
2009,11,30,09,20,5.70
2009,11,30,09,21,5.70
2009,11,30,09,22,5.70
2009,11,30,09,23,5.70
2009,11,30,09,24,5.70
2009,11,30,09,25,5.70
2009,11,30,09,26,5.80
2009,11,30,09,27,5.80
2009,11,30,09,28,5.80
2009,11,30,09,29,5.80
2009,11,30,09,30,5.80
2009,11,30,09,31,5.80
2009,11,30,09,32,5.70
2009,11,30,09,33,5.70
2009,11,30,09,34,5.70
2009,11,30,09,35,5.70
2009,11,30,09,36,5.70
2009,11,30,09,37,5.70
2009,11,30,09,38,5.70
2009,11,30,09,39,5.70
2009,11,30,09,40,5.70
2009,11,30,09,41,5.70
2009,11,30,09,42,5.70
2009,11,30,09,43,5.70
2009,11,30,09,44,5.70
2009,11,30,09,45,5.70
2009,11,30,09,46,5.70
2009,11,30,09,47,5.70
2009,11,30,09,48,5.70
2009,11,30,09,49,5.70
2009,11,30,09,50,5.70
2009,11,30,09,51,5.70
2009,11,30,09,52,5.80
2009,11,30,09,53,5.80
2009,11,30,09,54,5.80
2009,11,30,09,55,5.80
2009,11,30,09,56,5.80
2009,11,30,09,57,5.90
2009,11,30,09,58,5.90
2009,11,30,09,59,5.90
2009,11,30,10,00,5.90
2009,11,30,10,01,5.90
2009,11,30,10,02,5.90
2009,11,30,10,03,6.00
2009,11,30,10,04,6.00
2009,11,30,10,05,6.00
2009,11,30,10,06,6.10
2009,11,30,10,07,6.10
2009,11,30,10,08,6.10
2009,11,30,10,09,6.20
2009,11,30,10,10,6.20
2009,11,30,10,11,6.20
2009,11,30,10,12,6.20
2009,11,30,10,13,6.20
2009,11,30,10,14,6.30
2009,11,30,10,15,6.30
2009,11,30,10,16,6.30
2009,11,30,10,17,6.40
2009,11,30,10,18,6.40
2009,11,30,10,19,6.40
2009,11,30,10,20,6.40
2009,11,30,10,21,6.40
2009,11,30,10,22,6.50
2009,11,30,10,23,6.50
2009,11,30,10,24,6.50
2009,11,30,10,25,6.50
2009,11,30,10,26,6.50
2009,11,30,10,27,6.50
2009,11,30,10,28,6.60
2009,11,30,10,29,6.60
2009,11,30,10,30,6.60
2009,11,30,10,31,6.60
2009,11,30,10,32,6.60
2009,11,30,10,33,6.60
2009,11,30,10,34,6.60
2009,11,30,10,35,6.60
2009,11,30,10,36,6.60
2009,11,30,10,37,6.60
2009,11,30,10,38,6.60
2009,11,30,10,39,6.60
2009,11,30,10,40,6.60
2009,11,30,10,41,6.70
2009,11,30,10,42,6.70
2009,11,30,10,43,6.70
2009,11,30,10,44,6.80
2009,11,30,10,45,6.80
2009,11,30,10,46,6.80
2009,11,30,10,47,6.90
2009,11,30,10,48,6.90
2009,11,30,10,49,6.90
2009,11,30,10,50,7.00
2009,11,30,10,51,7.00
2009,11,30,10,52,7.10
2009,11,30,10,53,7.10
2009,11,30,10,54,7.20
2009,11,30,10,55,7.20
2009,11,30,10,56,7.20
2009,11,30,10,57,7.20
2009,11,30,10,58,7.20
2009,11,30,10,59,7.30
2009,11,30,11,00,7.30
2009,11,30,11,01,7.30
2009,11,30,11,02,7.30
2009,11,30,11,03,7.30
2009,11,30,11,04,7.30
2009,11,30,11,05,7.30
2009,11,30,11,06,7.30
2009,11,30,11,07,7.30
2009,11,30,11,08,7.30
2009,11,30,11,09,7.40
2009,11,30,11,10,7.40
2009,11,30,11,11,7.50
2009,11,30,11,12,7.50
2009,11,30,11,13,7.60
2009,11,30,11,14,7.60
2009,11,30,11,15,7.70
2009,11,30,11,16,7.70
2009,11,30,11,17,7.70
2009,11,30,11,18,7.80
2009,11,30,11,19,7.80
2009,11,30,11,20,7.80
2009,11,30,11,21,7.80
2009,11,30,11,22,7.80
2009,11,30,11,23,7.70
2009,11,30,11,24,7.70
2009,11,30,11,25,7.70
2009,11,30,11,26,7.70
2009,11,30,11,27,7.70
2009,11,30,11,28,7.70
2009,11,30,11,29,7.70
2009,11,30,11,30,7.70
2009,11,30,11,31,7.70
2009,11,30,11,32,7.60
2009,11,30,11,33,7.60
2009,11,30,11,34,7.60
2009,11,30,11,35,7.60
2009,11,30,11,36,7.70
2009,11,30,11,37,7.70
2009,11,30,11,38,7.70
2009,11,30,11,39,7.70
2009,11,30,11,40,7.70
2009,11,30,11,41,7.80
2009,11,30,11,42,7.80
2009,11,30,11,43,7.80
2009,11,30,11,44,7.80
2009,11,30,11,45,7.80
2009,11,30,11,46,7.80
2009,11,30,11,47,7.80
2009,11,30,11,48,7.80
2009,11,30,11,49,7.80
2009,11,30,11,50,7.80
2009,11,30,11,51,7.70
2009,11,30,11,52,7.70
2009,11,30,11,53,7.60
2009,11,30,11,54,7.60
2009,11,30,11,55,7.60
2009,11,30,11,56,7.50
2009,11,30,11,57,7.50
2009,11,30,11,58,7.50
2009,11,30,11,59,7.40
2009,11,30,12,00,7.40
2009,11,30,12,01,7.40
2009,11,30,12,02,7.30
2009,11,30,12,03,7.30
2009,11,30,12,04,7.30
2009,11,30,12,05,7.30
2009,11,30,12,06,7.20
2009,11,30,12,07,7.20
2009,11,30,12,08,7.20
2009,11,30,12,09,7.20
2009,11,30,12,10,7.10
2009,11,30,12,11,7.10
2009,11,30,12,12,7.10
2009,11,30,12,13,7.10
2009,11,30,12,14,7.10
2009,11,30,12,15,7.20
2009,11,30,12,16,7.20
2009,11,30,12,17,7.20
2009,11,30,12,18,7.20
2009,11,30,12,19,7.20
2009,11,30,12,20,7.20
2009,11,30,12,21,7.20
2009,11,30,12,22,7.20
2009,11,30,12,23,7.20
2009,11,30,12,24,7.20
2009,11,30,12,25,7.20
2009,11,30,12,26,7.20
2009,11,30,12,27,7.10
2009,11,30,12,28,7.10
2009,11,30,12,29,7.10
2009,11,30,12,30,7.10
2009,11,30,12,31,7.10
2009,11,30,12,32,7.00
2009,11,30,12,33,7.00
2009,11,30,12,34,6.90
2009,11,30,12,35,6.90
2009,11,30,12,36,6.90
2009,11,30,12,37,6.80
2009,11,30,12,38,6.80
2009,11,30,12,39,6.80
2009,11,30,12,40,6.80
2009,11,30,12,41,6.80
2009,11,30,12,42,6.80
2009,11,30,12,43,6.80
2009,11,30,12,44,6.80
2009,11,30,12,45,6.80
2009,11,30,12,46,6.80
2009,11,30,12,47,6.90
2009,11,30,12,48,6.90
2009,11,30,12,49,6.90
2009,11,30,12,50,6.80
2009,11,30,12,51,6.80
2009,11,30,12,52,6.80
2009,11,30,12,53,6.80
2009,11,30,12,54,6.70
2009,11,30,12,55,6.70
2009,11,30,12,56,6.60
2009,11,30,12,57,6.50
2009,11,30,12,58,6.50
2009,11,30,12,59,6.50
2009,11,30,13,00,6.40
2009,11,30,13,01,6.40
2009,11,30,13,02,6.40
2009,11,30,13,03,6.40
2009,11,30,13,04,6.40
2009,11,30,13,05,6.40
2009,11,30,13,06,6.40
2009,11,30,13,07,6.40
2009,11,30,13,08,6.40
2009,11,30,13,09,6.40
2009,11,30,13,10,6.30
2009,11,30,13,11,6.30
2009,11,30,13,12,6.30
2009,11,30,13,13,6.30
2009,11,30,13,14,6.30
2009,11,30,13,15,6.30
2009,11,30,13,16,6.30
2009,11,30,13,17,6.30
2009,11,30,13,18,6.40
2009,11,30,13,19,6.40
2009,11,30,13,20,6.40
2009,11,30,13,21,6.40
2009,11,30,13,22,6.50
2009,11,30,13,23,6.50
2009,11,30,13,24,6.50
2009,11,30,13,25,6.50
2009,11,30,13,26,6.40
2009,11,30,13,27,6.40
2009,11,30,13,28,6.40
2009,11,30,13,29,6.40
2009,11,30,13,30,6.40
2009,11,30,13,31,6.40
2009,11,30,13,32,6.40
2009,11,30,13,33,6.40
2009,11,30,13,34,6.40
2009,11,30,13,35,6.40
2009,11,30,13,36,6.50
2009,11,30,13,37,6.50
2009,11,30,13,38,6.50
2009,11,30,13,39,6.50
2009,11,30,13,40,6.60
2009,11,30,13,41,6.60
2009,11,30,13,42,6.60
2009,11,30,13,43,6.60
2009,11,30,13,44,6.60
2009,11,30,13,45,6.60
2009,11,30,13,46,6.60
2009,11,30,13,47,6.60
2009,11,30,13,48,6.60
2009,11,30,13,49,6.60
2009,11,30,13,50,6.60
2009,11,30,13,51,6.60
2009,11,30,13,52,6.60
2009,11,30,13,53,6.60
2009,11,30,13,54,6.60
2009,11,30,13,55,6.70
2009,11,30,13,56,6.70
2009,11,30,13,57,6.70
2009,11,30,13,58,6.80
2009,11,30,13,59,6.80
2009,11,30,14,00,6.80
2009,11,30,14,01,6.80
2009,11,30,14,02,6.90
2009,11,30,14,03,6.90
2009,11,30,14,04,7.00
2009,11,30,14,05,7.00
2009,11,30,14,06,7.00
2009,11,30,14,07,7.10
2009,11,30,14,08,7.10
2009,11,30,14,09,7.10
2009,11,30,14,10,7.20
2009,11,30,14,11,7.20
2009,11,30,14,12,7.20
2009,11,30,14,13,7.20
2009,11,30,14,14,7.20
2009,11,30,14,15,7.20
2009,11,30,14,16,7.20
2009,11,30,14,17,7.30
2009,11,30,14,18,7.30
2009,11,30,14,19,7.30
2009,11,30,14,20,7.30
2009,11,30,14,21,7.30
2009,11,30,14,22,7.40
2009,11,30,14,23,7.40
2009,11,30,14,24,7.40
2009,11,30,14,25,7.40
2009,11,30,14,26,7.50
2009,11,30,14,27,7.50
2009,11,30,14,28,7.50
2009,11,30,14,29,7.60
2009,11,30,14,30,7.60
2009,11,30,14,31,7.50
2009,11,30,14,32,7.50
2009,11,30,14,33,7.50
2009,11,30,14,34,7.50
2009,11,30,14,35,7.50
2009,11,30,14,36,7.50
2009,11,30,14,37,7.50
2009,11,30,14,38,7.50
2009,11,30,14,39,7.50
2009,11,30,14,40,7.40
2009,11,30,14,41,7.40
2009,11,30,14,42,7.40
2009,11,30,14,43,7.40
2009,11,30,14,44,7.40
2009,11,30,14,45,7.30
2009,11,30,14,46,7.20
2009,11,30,14,47,7.20
2009,11,30,14,48,7.20
2009,11,30,14,49,7.20
2009,11,30,14,50,7.10
2009,11,30,14,51,7.10
2009,11,30,14,52,7.20
2009,11,30,14,53,7.20
2009,11,30,14,54,7.20
2009,11,30,14,55,7.20
2009,11,30,14,56,7.20
2009,11,30,14,57,7.20
2009,11,30,14,58,7.20
2009,11,30,14,59,7.20
2009,11,30,15,00,7.20
2009,11,30,15,01,7.20
2009,11,30,15,02,7.20
2009,11,30,15,03,7.30
2009,11,30,15,04,7.30
2009,11,30,15,05,7.30
2009,11,30,15,06,7.30
2009,11,30,15,07,7.40
2009,11,30,15,08,7.40
2009,11,30,15,09,7.40
2009,11,30,15,10,7.40
2009,11,30,15,11,7.40
2009,11,30,15,12,7.40
2009,11,30,15,13,7.40
2009,11,30,15,14,7.40
2009,11,30,15,15,7.40
2009,11,30,15,16,7.40
2009,11,30,15,17,7.40
2009,11,30,15,18,7.40
2009,11,30,15,19,7.40
2009,11,30,15,20,7.40
2009,11,30,15,21,7.40
2009,11,30,15,22,7.50
2009,11,30,15,23,7.40
2009,11,30,15,24,7.40
2009,11,30,15,25,7.40
2009,11,30,15,26,7.40
2009,11,30,15,27,7.40
2009,11,30,15,28,7.40
2009,11,30,15,29,7.40
2009,11,30,15,30,7.40
2009,11,30,15,31,7.40
2009,11,30,15,32,7.30
2009,11,30,15,33,7.30
2009,11,30,15,34,7.30
2009,11,30,15,35,7.20
2009,11,30,15,36,7.20
2009,11,30,15,37,7.20
2009,11,30,15,38,7.10
2009,11,30,15,39,7.10
2009,11,30,15,40,7.00
2009,11,30,15,41,6.90
2009,11,30,15,42,6.90
2009,11,30,15,43,6.90
2009,11,30,15,44,6.80
2009,11,30,15,45,6.80
2009,11,30,15,46,6.80
2009,11,30,15,47,6.80
2009,11,30,15,48,6.80
2009,11,30,15,49,6.70
2009,11,30,15,50,6.70
2009,11,30,15,51,6.70
2009,11,30,15,52,6.70
2009,11,30,15,53,6.70
2009,11,30,15,54,6.70
2009,11,30,15,55,6.70
2009,11,30,15,56,6.60
2009,11,30,15,57,6.60
2009,11,30,15,58,6.60
2009,11,30,15,59,6.60
2009,11,30,16,00,6.50
2009,11,30,16,01,6.50
2009,11,30,16,02,6.40
2009,11,30,16,03,6.40
2009,11,30,16,04,6.30
2009,11,30,16,05,6.30
2009,11,30,16,06,6.30
2009,11,30,16,07,6.30
2009,11,30,16,08,6.30
2009,11,30,16,09,6.20
2009,11,30,16,10,6.20
2009,11,30,16,11,6.20
2009,11,30,16,12,6.20
2009,11,30,16,13,6.10
2009,11,30,16,14,6.10
2009,11,30,16,15,6.10
2009,11,30,16,16,6.00
2009,11,30,16,17,6.00
2009,11,30,16,18,5.90
2009,11,30,16,19,5.90
2009,11,30,16,20,5.90
2009,11,30,16,21,5.90
2009,11,30,16,22,5.80
2009,11,30,16,23,5.80
2009,11,30,16,24,5.80
2009,11,30,16,25,5.80
2009,11,30,16,26,5.70
2009,11,30,16,27,5.70
2009,11,30,16,28,5.70
2009,11,30,16,29,5.60
2009,11,30,16,30,5.60
2009,11,30,16,31,5.60
2009,11,30,16,32,5.60
2009,11,30,16,33,5.50
2009,11,30,16,34,5.50
2009,11,30,16,35,5.50
2009,11,30,16,36,5.40
2009,11,30,16,37,5.40
2009,11,30,16,38,5.50
2009,11,30,16,39,5.50
2009,11,30,16,40,5.50
2009,11,30,16,41,5.50
2009,11,30,16,42,5.50
2009,11,30,16,43,5.50
2009,11,30,16,44,5.60
2009,11,30,16,45,5.50
2009,11,30,16,46,5.50
2009,11,30,16,47,5.50
2009,11,30,16,48,5.50
2009,11,30,16,49,5.50
2009,11,30,16,50,5.50
2009,11,30,16,51,5.40
2009,11,30,16,52,5.40
2009,11,30,16,53,5.40
2009,11,30,16,54,5.40
2009,11,30,16,55,5.40
2009,11,30,16,56,5.40
2009,11,30,16,57,5.40
2009,11,30,16,58,5.40
2009,11,30,16,59,5.40
2009,11,30,17,00,5.30
2009,11,30,17,01,5.30
2009,11,30,17,02,5.30
2009,11,30,17,03,5.30
2009,11,30,17,04,5.30
2009,11,30,17,05,5.30
2009,11,30,17,06,5.30
2009,11,30,17,07,5.30
2009,11,30,17,08,5.30
2009,11,30,17,09,5.30
2009,11,30,17,10,5.30
2009,11,30,17,11,5.30
2009,11,30,17,12,5.30
2009,11,30,17,13,5.30
2009,11,30,17,14,5.40
2009,11,30,17,15,5.30
2009,11,30,17,16,5.30
2009,11,30,17,17,5.30
2009,11,30,17,18,5.30
2009,11,30,17,19,5.30
2009,11,30,17,20,5.30
2009,11,30,17,21,5.30
2009,11,30,17,22,5.30
2009,11,30,17,23,5.30
2009,11,30,17,24,5.30
2009,11,30,17,25,5.30
2009,11,30,17,26,5.40
2009,11,30,17,27,5.40
2009,11,30,17,28,5.40
2009,11,30,17,29,5.40
2009,11,30,17,30,5.40
2009,11,30,17,31,5.40
2009,11,30,17,32,5.40
2009,11,30,17,33,5.50
2009,11,30,17,34,5.50
2009,11,30,17,35,5.60
2009,11,30,17,36,5.70
2009,11,30,17,37,5.70
2009,11,30,17,38,5.80
2009,11,30,17,39,5.80
2009,11,30,17,40,5.90
2009,11,30,17,41,5.90
2009,11,30,17,42,6.00
2009,11,30,17,43,6.00
2009,11,30,17,44,6.00
2009,11,30,17,45,6.10
2009,11,30,17,46,6.10
2009,11,30,17,47,6.10
2009,11,30,17,48,6.20
2009,11,30,17,49,6.20
2009,11,30,17,50,6.20
2009,11,30,17,51,6.20
2009,11,30,17,52,6.20
2009,11,30,17,53,6.30
2009,11,30,17,54,6.30
2009,11,30,17,55,6.30
2009,11,30,17,56,6.30